Weather History for Greenwood, SC

Change the Weather History Date:

Sunday, March 9, 2014

  Actual Average (KAND) Record (KAND)
Temperature  
Mean Temperature 60 °F -  
Max Temperature 73 °F 62 °F 84 °F (2009)
Min Temperature 48 °F 39 °F 25 °F (1960)
Degree Days  
Heating Degree Days 4    
Growing Degree Days 10 (Base 50)    
Moisture  
Dew Point 40 °F    
Average Humidity 49    
Maximum Humidity 74    
Minimum Humidity 29    
Precipitation  
Precipitation 0.00 in - - ()
Sea Level Pressure  
Sea Level Pressure 30.06 in    
Wind  
Wind Speed 8 mph (WSW)    
Max Wind Speed 13 mph    
Max Gust Speed 16 mph    
Visibility 10 miles    
Events      
Averages and records for this station are not official NWS values.
T = Trace of Precipitation, MM = Missing Value Source: NWS Daily Summary

Daily Weather History Graph

Daily Weather History Graph

Search for Another Location

Airport:

Trip Planner

Search our weather history database for the weather conditions in past years. The results will help you decide how hot, cold, wet, or windy it might be!

Date:

Astronomy

Mar. 09, 2014 Rise Set
Actual Time 7:47 AM EDT 7:31 PM EDT
Civil Twilight 7:22 AM EDT 7:56 PM EDT
Nautical Twilight 6:53 AM EDT 8:25 PM EDT
Astronomical Twilight 6:24 AM EDT 8:54 PM EDT
Moon 1:34 PM EDT (3/9) 3:00 AM EDT (3/9)
Length of Visible Light 12h 34m
Length of Day
11h 44m
First Quarter, 61% of the Moon is Illuminated
Mar 9
First Quarter
Mar 16
Full
Mar 23
Last Quarter
Mar 30
New
Apr 7
First Quarter

Hourly Weather History & Observations

Time (EDT) Temp. Dew Point Humidity Pressure Visibility Wind Dir Wind Speed Gust Speed Precip Events Conditions
12:56 AM 53.1 °F 37.0 °F 55% 30.06 in 10.0 mi WSW 8.1 mph - N/A   Clear
1:56 AM 51.1 °F 37.9 °F 61% 30.06 in 10.0 mi WSW 8.1 mph - N/A   Clear
3:56 AM 52.0 °F 39.0 °F 61% 30.06 in 10.0 mi WSW 10.4 mph - N/A   Clear
4:56 AM 50.0 °F 39.0 °F 66% 30.05 in 10.0 mi WSW 8.1 mph - N/A   Clear
5:56 AM 48.0 °F 39.0 °F 71% 30.05 in 10.0 mi WSW 9.2 mph - N/A   Clear
6:56 AM 48.9 °F 39.0 °F 69% 30.09 in 10.0 mi WSW 5.8 mph - N/A   Clear
7:56 AM 48.0 °F 39.9 °F 74% 30.10 in 10.0 mi WSW 5.8 mph - N/A   Clear
8:56 AM 50.0 °F 41.0 °F 71% 30.12 in 10.0 mi WSW 6.9 mph - N/A   Clear
9:56 AM 55.9 °F 41.0 °F 57% 30.12 in 10.0 mi West 5.8 mph - N/A   Clear
10:56 AM 62.1 °F 42.1 °F 48% 30.13 in 10.0 mi West 5.8 mph - N/A   Clear
11:56 AM 66.9 °F 41.0 °F 39% 30.11 in 10.0 mi NNW 6.9 mph - N/A   Clear
12:56 PM 69.1 °F 39.9 °F 35% 30.10 in 10.0 mi West 8.1 mph - N/A   Clear
1:56 PM 71.1 °F 41.0 °F 34% 30.07 in 10.0 mi WSW 11.5 mph - N/A   Clear
2:56 PM 72.0 °F 39.9 °F 31% 30.05 in 10.0 mi WNW 12.7 mph 16.1 mph N/A   Clear
3:56 PM 73.0 °F 39.0 °F 29% 30.04 in 10.0 mi Variable 5.8 mph - N/A   Clear
4:56 PM 73.0 °F 39.9 °F 30% 30.03 in 10.0 mi West 8.1 mph - N/A   Clear
5:56 PM 73.0 °F 39.9 °F 30% 30.01 in 10.0 mi West 8.1 mph - N/A   Clear
6:56 PM 70.0 °F 41.0 °F 35% 30.01 in 10.0 mi SW 10.4 mph - N/A   Clear
7:56 PM 64.9 °F 42.1 °F 43% 30.03 in 10.0 mi SSW 6.9 mph - N/A   Clear
8:56 PM 60.1 °F 43.0 °F 53% 30.04 in 10.0 mi SW 8.1 mph - N/A   Clear
9:56 PM 62.1 °F 42.1 °F 48% 30.04 in 10.0 mi WSW 9.2 mph - N/A   Clear
10:56 PM 61.0 °F 39.9 °F 46% 30.05 in 10.0 mi WSW 6.9 mph - N/A   Clear
11:56 PM 59.0 °F 39.0 °F 48% 30.04 in 10.0 mi West 9.2 mph - N/A   Clear
12:56 AM 57.0 °F 36.0 °F 45% 30.06 in 10.0 mi West 5.8 mph - N/A   Clear